This demonstration page uses our WeatherBlox Daily Observations layout. Learn more.

Hourly Observations for July 21, 2019

Temp ( °F °C ) Dew Point ( °F °C ) Humidity (%) Winds ( mph kmh ) Pressure ( in mb ) Visibility ( mi km ) Precip ( " mm )
12:15 am 00:15 Cloudy 72 22 68 20 88 88 NE 16 26 29.88 1012 10 16.09344 0 0
12:35 am 00:35 Cloudy 71 21.6 67 19.7 89 89 NE 16 26 29.88 1012 10 16.09344 0 0
12:55 am 00:55 Cloudy 71 21.5 67 19.5 88 88 NNE 18 30 29.88 1012 10 16.09344 0 0
1:15 am 01:15 Cloudy 70 21.2 67 19.2 88 88 NE 15 24 29.88 1012 10 16.09344 0 0
1:35 am 01:35 Cloudy 70 21 67 19.2 90 90 NE 12 19 29.88 1012 10 16.09344 0 0
1:55 am 01:55 Cloudy 70 21 67 19.3 90 90 NE 10 17 29.88 1012 10 16.09344 0 0
2:15 am 02:15 Cloudy 69 20.8 67 19.2 91 91 NE 16 26 29.85 1011 10 16.09344 0 0
2:35 am 02:35 Cloudy 69 20.8 67 19.3 91 91 NE 13 20 29.85 1011 10 16.09344 0 0
2:55 am 02:55 Cloudy with Nearby Thunderstorms 69 20.7 67 19.3 92 92 NE 14 22 29.85 1011 10 16.09344 0 0
3:15 am 03:15 Cloudy 69 20.6 67 19.4 93 93 NE 10 17 29.85 1011 10 16.09344 0 0
3:35 am 03:35 Cloudy 69 20.6 67 19.5 93 93 NE 9 15 29.85 1011 10 16.09344 0 0
3:55 am 03:55 Cloudy 69 20.6 67 19.5 93 93 N 6 9 29.88 1012 10 16.09344 0 0
4:15 am 04:15 Cloudy with Heavy Rain 68 20.2 67 19.6 96 96 NW 22 35 30.03 1017 7 11.265408 0.02 0.508
4:35 am 04:35 Cloudy with Nearby Thunderstorms 64 17.9 64 17.5 98 98 N 20 31 29.97 1015 4 6.437376 0.27 6.858
4:55 am 04:55 Cloudy with Light Thunderstorms 64 17.5 62 16.8 96 96 N 9 15 30 1016 10 16.09344 0.31 7.874
5:15 am 05:15 Cloudy with Thunderstorms 63 17.3 62 16.7 96 96 NNE 14 22 29.94 1014 4 6.437376 0.2 5.08
5:35 am 05:35 Mostly Cloudy 64 17.6 63 17.1 97 97 NNE 12 19 29.94 1014 10 16.09344 0.2 5.08
5:55 am 05:55 Partly Cloudy with Nearby Thunderstorms 64 17.7 64 17.5 99 99 NNE 15 24 29.94 1014 10 16.09344 0.2 5.08
6:15 am 06:15 Clear 64 18 64 17.8 99 99 NNE 18 30 29.91 1013 10 16.09344 0 0
6:35 am 06:35 Sunny 65 18.2 64 18 99 99 NNE 16 26 29.91 1013 10 16.09344 0 0
6:55 am 06:55 Sunny with Nearby Thunderstorms 65 18.3 65 18.2 99 99 NE 10 17 29.94 1014 10 16.09344 0 0
7:15 am 07:15 Sunny 65 18.5 65 18.5 100 100 ENE 12 19 29.91 1013 10 16.09344 0 0
7:35 am 07:35 Sunny 66 18.7 65 18.5 99 99 NE 15 24 29.91 1013 10 16.09344 0 0
7:55 am 07:55 Sunny 66 19.1 66 18.7 98 98 ENE 14 22 29.94 1014 10 16.09344 0 0
8:15 am 08:15 Mostly Cloudy 67 19.3 66 18.7 96 96 E 6 9 29.94 1014 10 16.09344 0 0
8:35 am 08:35 Cloudy 68 19.9 66 18.8 93 93 E 7 11 29.91 1013 10 16.09344 0 0
8:55 am 08:55 Cloudy 68 20 66 19 94 94 ESE 8 13 29.94 1014 10 16.09344 0 0
9:15 am 09:15 Cloudy with Light Rain 68 19.8 67 19.2 96 96 SW 12 19 30.03 1017 10 16.09344 0.02 0.508
9:35 am 09:35 Cloudy with Rain 67 19.6 67 19.2 98 98 Calm 30.03 1017 4 6.437376 0.07 1.778
9:55 am 09:55 Cloudy with Rain 68 19.8 67 19.4 98 98 SSW 5 7 30.06 1018 7 11.265408 0.1 2.54
10:15 am 10:15 Cloudy with Rain 68 19.8 67 19.6 99 99 SW 3 6 30.06 1018 5 8.04672 0.04 1.016
10:35 am 10:35 Cloudy with Light Rain 68 20 67 19.7 98 98 Calm 30.06 1018 5 8.04672 0.07 1.778
10:55 am 10:55 Cloudy with Light Rain 68 20.2 67 19.7 97 97 N 3 6 30.06 1018 10 16.09344 0.09 2.286
11:15 am 11:15 Cloudy with Light Rain 69 20.6 67 19.5 93 93 ENE 7 11 30.06 1018 10 16.09344 0 0
11:35 am 11:35 Cloudy with Light Rain 69 20.7 67 19.5 93 93 E 7 11 30.03 1017 10 16.09344 0.01 0.254
11:55 am 11:55 Mostly Cloudy 70 21 67 19.5 91 91 E 9 15 30.03 1017 10 16.09344 0.01 0.254
12:15 pm 12:15 Partly Cloudy 71 21.4 67 19.3 88 88 E 12 19 30.03 1017 10 16.09344 0 0
12:35 pm 12:35 Partly Cloudy 71 21.7 66 19.1 85 85 E 9 15 30.03 1017 10 16.09344 0 0
12:55 pm 12:55 Mostly Cloudy 71 21.9 66 18.9 83 83 E 10 17 30.03 1017 10 16.09344 0 0
1:15 pm 13:15 Mostly Cloudy 72 22.1 66 19.1 83 83 ESE 8 13 30 1016 10 16.09344 0 0
1:35 pm 13:35 Cloudy 72 22.1 66 19.1 83 83 E 7 11 30 1016 10 16.09344 0 0
1:55 pm 13:55 Cloudy 72 22.1 66 18.8 82 82 ENE 8 13 30.03 1017 10 16.09344 0 0
2:15 pm 14:15 Mostly Cloudy 72 22.4 66 19.1 82 82 NNE 9 15 30 1016 10 16.09344 0 0
2:35 pm 14:35 Partly Cloudy 73 22.7 65 18.3 76 76 NNE 7 11 30.03 1017 10 16.09344 0 0
2:55 pm 14:55 Mostly Cloudy 74 23.1 66 18.8 77 77 NE 10 17 30.03 1017 10 16.09344 0 0
3:15 pm 15:15 Mostly Cloudy 74 23.5 66 19.1 76 76 NNE 6 9 30.03 1017 10 16.09344 0 0
3:35 pm 15:35 Partly Cloudy 74 23.6 66 19 75 75 NNE 7 11 30.03 1017 10 16.09344 0 0
3:55 pm 15:55 Sunny 75 24 66 18.7 72 72 NNE 8 13 30.03 1017 10 16.09344 0 0
4:15 pm 16:15 Sunny 76 24.2 67 19.2 74 74 N 9 15 30.03 1017 10 16.09344 0 0
4:35 pm 16:35 Sunny 76 24.6 67 19.4 73 73 N 12 19 30 1016 10 16.09344 0 0
4:55 pm 16:55 Sunny 76 24.6 67 19.5 73 73 N 9 15 30 1016 10 16.09344 0 0
5:15 pm 17:15 Sunny 76 24.7 66 19.1 71 71 N 14 22 30 1016 10 16.09344 0 0
5:35 pm 17:35 Sunny 77 25 67 19.4 71 71 N 13 20 30 1016 10 16.09344 0 0
5:55 pm 17:55 Sunny 77 25 67 19.3 71 71 N 10 17 30 1016 10 16.09344 0 0
6:15 pm 18:15 Sunny 77 25.2 67 19.7 72 72 N 13 20 30 1016 10 16.09344 0 0
6:35 pm 18:35 Sunny 77 24.9 67 19.7 73 73 NNE 13 20 30 1016 10 16.09344 0 0
6:55 pm 18:55 Sunny 77 25 68 20.1 74 74 NNE 12 19 30 1016 10 16.09344 0 0
7:15 pm 19:15 Partly Cloudy 76 24.7 68 20.2 76 76 NE 14 22 30 1016 10 16.09344 0 0
7:35 pm 19:35 Sunny 75 24.1 67 19.6 76 76 NE 13 20 30.03 1017 10 16.09344 0 0
7:55 pm 19:55 Mostly Cloudy 74 23.5 67 19.6 79 79 NE 12 19 30.03 1017 10 16.09344 0 0
8:15 pm 20:15 Cloudy 74 23.1 67 19.6 81 81 NE 10 17 30.03 1017 10 16.09344 0 0
8:35 pm 20:35 Cloudy 73 22.6 68 19.8 84 84 NE 16 26 30.03 1017 10 16.09344 0 0
8:55 pm 20:55 Cloudy 71 21.8 67 19.7 88 88 NE 15 24 30.06 1018 10 16.09344 0 0
9:15 pm 21:15 Cloudy 71 21.4 67 19.2 87 87 NE 12 19 30.06 1018 10 16.09344 0 0
9:35 pm 21:35 Cloudy 69 20.5 65 18.4 88 88 NE 13 20 30.09 1019 10 16.09344 0 0
9:55 pm 21:55 Cloudy 68 20.1 64 17.5 85 85 NE 14 22 30.12 1020 10 16.09344 0 0
10:15 pm 22:15 Cloudy 68 20 62 16.6 81 81 NE 15 24 30.12 1020 10 16.09344 0 0
10:35 pm 22:35 Cloudy 67 19.6 63 17.1 86 86 NE 10 17 30.12 1020 10 16.09344 0 0
10:55 pm 22:55 Cloudy 67 19.5 63 17.4 88 88 NE 8 13 30.12 1020 10 16.09344 0 0
11:15 pm 23:15 Cloudy 67 19.5 64 17.7 89 89 NNE 12 19 30.12 1020 10 16.09344 0 0
11:35 pm 23:35 Cloudy 67 19.5 63 17.3 87 87 NNE 10 17 30.12 1020 10 16.09344 0 0
11:55 pm 23:55 Cloudy 67 19.2 61 16.2 83 83 NE 8 13 30.15 1021 10 16.09344 0 0

Powered by AerisWeather